Terminal Aerodrome Forecast
Issued by NWS

Home | Current Version | Previous Version | Text Only | Print | Product List | Glossary Off
Versions: 1 2 3 4 5 6 7 8 9 10 11 12 13 14 15 16

000
FTUS43 KBIS 071100
TAFJMS
TAF
KJMS 071136Z 0712/0812 28007KT P6SM -SHRA SCT040 BKN080
     FM071500 33012KT P6SM SCT080
     FM071800 33019G29KT P6SM -SHRA VCTS BKN050CB OVC080
     FM080300 31010KT P6SM SCT080=

USA.gov is the U.S. government's official web portal to all federal, state and local government web resources and services.